Regional Weather Roundup
Issued by NWS

Home | Current Version | Previous Version | Graphics & Text | Print | Product List | Glossary On
Versions: 1 2 3 4 5 6 7 8 9 10 11 12 13 14 15 16 17 18 19 20 21 22 23 24 25 26 27 28 29 30 31 32 33 34 35 36 37 38 39 40 41 42 43 44 45 46 47 48 49 50
000
ASUS43 KMPX 300101
RWRMN
WEATHER ROUNDUP FOR MINNESOTA
NATIONAL WEATHER SERVICE TWIN CITIES/CHANHASSEN MN
700 PM CST THU JAN 29 2015


NOTE: "FAIR" INDICATES FEW OR NO CLOUDS BELOW 12,000 FEET WITH NO
SIGNIFICANT WEATHER AND/OR OBSTRUCTIONS TO VISIBILITY. N/A MEANS
CURRENT SKY AND/OR WEATHER CONDITIONS ARE NOT AVAILABLE.

MNZ060>063-068>070-300200-
   Twin Cities Metro

CITY           SKY/WX    TMP DP  RH WIND       PRES   REMARKS
TWIN CITIES    PTCLDY    23  10  57 NW17      30.44R WCI   9
ST PAUL        CLEAR     22  11  62 N14       30.45R WCI   9
CRYSTAL        CLEAR     22   9  57 NW16G22   30.44R WCI   8
BLAINE         PTCLDY    21  12  68 N17       30.45R WCI   7
LAKEVILLE      PTCLDY    21  14  73 NW12G20   30.42R WCI   9
EDEN PRAIRIE   CLEAR     22  11  62 NW12G21   30.43R WCI  10
SOUTH ST PAUL  CLEAR     24  11  57 N14G26    30.43R WCI  12
LAKE ELMO      FAIR      21  10  63 NW13G22   30.44R WCI   9
$$
MNZ001>005-007-008-013>017-022>024-027-028-300200-
   Northwest Minnesota

CITY           SKY/WX    TMP DP  RH WIND       PRES   REMARKS
BEMIDJI        PTCLDY     5   0  78 NW8       30.47R WCI  -8
HALLOCK        PTCLDY     3  -2  78 N8        30.57S WCI -10
ROSEAU         PTCLDY     1  -4  78 NW8       30.52S WCI -12
WARROAD        CLEAR      1  -4  78 NW5       30.51S WCI  -8
THIEF RVR FALL PTCLDY     3   0  85 NW8       30.53S WCI -10
CROOKSTON      CLEAR      7   1  78 N10       30.58S WCI  -8
FOSSTON        PTCLDY     1  -2  85 NW5       30.52S WCI  -8
DETROIT LAKES  CLEAR      9   3  78 NW12      30.51S WCI  -6
MOORHEAD       FAIR      10   7  85 N8        30.56S WCI  -1
PARK RAPIDS    PTCLDY     9   2  73 NW10      30.46R WCI  -5
MAHNOMEN       FAIR       6   1  81 NW13      30.52R WCI -11
$$
MNZ006-009>011-018-025>026-300200-
   North Central Minnesota

CITY           SKY/WX    TMP DP  RH WIND       PRES   REMARKS
BAUDETTE       CLEAR      3  -3  76 NW6       30.48R WCI  -8
FLAG ISLAND    CLEAR      1  -4  78 NW12      30.50R WCI -15
INTL FALLS     CLOUDY     5  -3  69 NW8       30.46R WCI  -8
WASKISH        CLEAR      3   0  85 NW6       30.49R WCI  -8
BIG FORK       CLEAR      5   0  78 NW6       30.45R WCI  -6
LONGVILLE      CLOUDY    10   3  72 NW6       30.46R WCI   1
GRAND RAPIDS   PTCLDY    10   1  67 NW13      30.41R WCI  -5
CRANE LAKE     CLOUDY     7   1  78 W6        30.45R WCI  -3
ORR            CLOUDY     7   0  72 NW9       30.40R WCI  -7
COOK           CLOUDY     9   1  72 W8        30.42R WCI  -4
WALKER         FAIR       8   2  76 NW6       30.46R WCI  -2
$$
MNZ012-019>021-037-300200-
   Northeast Minnesota

CITY           SKY/WX    TMP DP  RH WIND       PRES   REMARKS
DULUTH         MOCLDY    11   1  64 NW10      30.38R WCI  -3
ELY            CLOUDY     9   1  72 NW6G16    30.37R WCI  -1
HIBBING        CLOUDY     9  -1  64 N15G23    30.41R WCI  -8
EVELETH        MOCLDY    12   5  73 NW12G17   30.40R WCI  -2
DULUTH HARBOR  CLOUDY    16   7  67 NW10      30.46R WCI   3
TWO HARBORS    CLOUDY    16   7  67 NW5       30.37R WCI   9
SILVER BAY     MOCLDY    14   1  57 NW12G22   30.36R WCI   0
GRAND MARAIS     N/A     13   1  59 NW9G16    30.38R WCI   1
G MARAIS ARPRT CLOUDY     7  -2  66 NW9G17    30.26R WCI  -7
$$
MNZ029>031-032-039>041-046>048-054>057-064-300200-
   West Central Minnesota

CITY           SKY/WX    TMP DP  RH WIND       PRES   REMARKS
FERGUS FALLS   CLEAR     10   3  72 N7        30.57R WCI   0
WHEATON        CLOUDY    16  10  79 N8        30.56R WCI   5
MORRIS         FLURRIES  16  10  79 N15G22    30.51S WCI   1
ALEXANDRIA     CLEAR     12   5  73 NW8       30.48R WCI   0
ELBOW LAKE     FAIR      12   7  81 N12G17    30.51R WCI  -2
WADENA         FLURRIES   9   3  78 NW8       30.48R WCI  -4
GLENWOOD       CLEAR     12   9  85 NW8       30.49R WCI   1
APPLETON       CLOUDY    19  12  73 N16       30.53R WCI   5
BENSON         FLURRIES  16   9  73 N9G16     30.52R WCI   4
ORTONVILLE     CLOUDY    19  12  73 N12       30.53R WCI   7
MADISON        CLOUDY    25  16  68 N16G23    30.53R WCI  12
WILLMAR        FAIR      18  10  73 NW13      30.51R WCI   4
$$
MNZ033>034-036-042>043-049>051-058-059-300200-
   Central Minnesota

CITY           SKY/WX    TMP DP  RH WIND       PRES   REMARKS
ST CLOUD       CLEAR     18   6  59 NW12      30.47R WCI   5
SAUK CENTRE    FAIR      13   7  77 NW10      30.48R WCI   0
PAYNESVILLE    CLEAR     13   8  81 W10       30.49R WCI   0
AITKIN         CLEAR     14   5  67 NW6       30.44R WCI   5
PINE RIVER     MOCLDY    10   5  79 NW7       30.48R WCI   0
BRAINERD       CLEAR     13   4  67 NW8       30.46R WCI   2
STAPLES        FAIR      10   5  79 NW10      30.47R WCI  -3
LONG PRAIRIE   FAIR      12   7  79 W10G16    30.48R WCI  -1
LITTLE FALLS   CLEAR     18   7  62 NW9       30.48R WCI   6
LITCHFIELD     CLEAR     18  12  79 NW10      30.48R WCI   6
BUFFALO        CLEAR     20   9  61 NW9G20    30.48R WCI  10
MAPLE LAKE     CLEAR     21  11  65 NW13      30.48R WCI   8
$$
MNZ037-044-045-052-053-300200-
   East Central Minnesota

CITY           SKY/WX    TMP DP  RH WIND       PRES   REMARKS
PRINCETON      CLEAR     18   7  62 NW8       30.46R WCI   7
MORA           CLEAR     14   5  67 NW7       30.46R WCI   4
CAMBRIDGE      CLEAR     18   7  62 NW9       30.45R WCI   6
RUSH CITY      CLEAR     16   8  68 N9        30.46R WCI   5
MOOSE LAKE     CLEAR     14   5  67 N5        30.43R WCI   6
HINCKLEY       FAIR      16   9  73 NW7       30.45R WCI   6
CLOQUET        CLEAR     10   1  67 NW10      30.41R WCI  -3
MCGREGOR       CLEAR     14   5  67 NW8       30.44R WCI   3
$$
MNZ071>073-080-081-089-090-097-098-300200-
   Southwest Minnesota

CITY           SKY/WX    TMP DP  RH WIND       PRES   REMARKS
MONTEVIDEO     MOCLDY    18  12  79 N15G21    30.54R WCI   3
GRANITE FALLS  CLEAR     18  12  79 NW12      30.54R WCI   5
CANBY          CLOUDY    22  15  76 N12       30.53R WCI  10
MARSHALL       MOCLDY    19  10  68 N16G24    30.52R WCI   5
REDWOOD FALLS  CLEAR     18  11  74 NW16G23   30.51R WCI   3
OLIVIA         CLEAR     18  12  79 NW16      30.50R WCI   3
PIPESTONE      CLOUDY    25  18  74 N8        30.48R WCI  16
WINDOM         PTCLDY    19  16  86 NW18      30.48R WCI   4
WORTHINGTON    CLOUDY    21  16  79 N17       30.48R WCI   7
JACKSON        PTCLDY    23  18  80 NW18G25   30.46R WCI   9
TRACY          CLOUDY    22  17  81 N15G22    30.50R WCI   9
SLAYTON        MOCLDY    21  16  81 NW13G22   30.48R WCI   9
$$
MNZ065>067-074>077-082>085-091>093-300200-
   South Central Minnesota

CITY           SKY/WX    TMP DP  RH WIND       PRES   REMARKS
MANKATO        PTCLDY    21  12  68 NW18G28   30.45R WCI   6
NEW ULM        CLEAR     18  12  79 NW18      30.48R WCI   2
ST JAMES       CLEAR     21  16  79 NW21      30.49R WCI   6
FAIRMONT       PTCLDY    21  12  68 NW17G25   30.44R WCI   7
GLENCOE        CLEAR     21  15  77 NW13G20   30.46R WCI   9
FARIBAULT      MOCLDY    25  16  68 NW16G24   30.42R WCI  12
OWATONNA       MOCLDY    23  16  74 NW20G26   30.41R WCI   8
WASECA         CLEAR     23  16  74 NW15G26   30.44R WCI  10
ALBERT LEA     CLOUDY    25  18  74 NW13G20   30.41R WCI  13
$$
MNZ078>079-086>088-094>096-300200-
   Southeast Minnesota

CITY           SKY/WX    TMP DP  RH WIND       PRES   REMARKS
ROCHESTER      CLOUDY    24  16  71 NW22      30.36R WCI   9
RED WING       CLEAR     25  10  54 N9G18     30.41R WCI  15
STANTON        MOCLDY    25  16  68 NW24      30.40R WCI   9
DODGE CENTER   CLOUDY    25  18  74 NW21      30.38R WCI  10
WINONA         PTCLDY    30  19  64 NW15G24   30.38R WCI  19
AUSTIN         CLOUDY    25  18  74 NW13G21   30.39R WCI  13
PRESTON        CLOUDY    24  16  70 NW15G26   30.35R WCI  11
$$
ABBREVIATIONS USED IN REMARKS
   TC - TEMPERATURES IN CELSIUS
  WCI - WIND CHILL INDEX
   HX - HEAT INDEX
  VSB - VISIBILITY
$$


USA.gov is the U.S. government's official web portal to all federal, state and local government web resources and services.